Tracking 19250 objects as of 23-Sep-2018
HD Live streaming from Space Station
objects crossing your sky now

FENGYUN 1C DEB

Track FENGYUN 1C DEB now!
10-day predictions


NORAD ID: 35167
Int'l Code: 1999-025DMX
Perigee: 640.4 km
Apogee: 1,006.0 km
Inclination: 98.6 °
Period: 101.2 minutes
Semi major axis: 7194 km
RCS: 0.0088 m2 (small)
Launch date: May 10, 1999
Source: People's Republic of China (PRC)
Launch site: Taiyaun Space Center, China (TSC)

Note: This is SATELLITE DEBRIS
aabbcc
Your satellite tracking list
Your tracking list is empty




NASA's NSSDC Master Catalog

Two Line Element Set (TLE):
1 35167U 99025DMX 18265.91781450 +.00000132 +00000-0 +58278-4 0  9994
2 35167 098.6016 308.3362 0254043 006.2209 354.2024 14.22755857324540
Source of the keplerian elements: AFSPC